Location: Ar Ranvel
(48.3000°N, 4.8833°W)
Time: 12:47:00
(UTC+00:00)

USA 215 - Pass Details

Date: 16 June 2021
Orbit: 1100 x 1107 km, 123.0° (Epoch: 22 June)

Event Time Altitude Azimuth Distance (km) Brightness Sun altitude
Rises 23:20:36 0° 54° (NE) 3,924 6.4 -17.1°
Reaches altitude 10° 23:23:05 10° 56° (NE) 2,963 5.8 -17.2°
Maximum altitude 23:29:40 84° 145° (SE) 1,112 3.2 -17.4°
Drops below altitude 10° 23:36:12 10° 234° (SW) 2,954 5.3 -17.6°
Sets 23:38:41 0° 235° (SW) 3,910 5.9 -17.7°
